Scappoose, OR

8:06 PM PDT on September 29, 2016 (GMT -0700)
Scappoose Industrial

Weather History for KSPB - April, 2013

Change the Weather History Date:

Monday, April 22, 2013

  Actual Average Record
Temperature  
Mean Temperature 52 °F -  
Max Temperature 66 °F - 80 °F (2012)
Min Temperature 39 °F - 29 °F (2011)
Degree Days  
Heating Degree Days 12    
Month to date heating degree days 355  
Since 1 July heating degree days 4302  
Cooling Degree Days 0    
Month to date cooling degree days 0  
Year to date cooling degree days 0  
Growing Degree Days 2 (Base 50)    
Moisture  
Dew Point 34 °F    
Average Humidity 57    
Maximum Humidity 85    
Minimum Humidity 29    
Precipitation  
Precipitation 0.00 in - 0.59 in (2008)
Month to date precipitation 2.15  
Year to date precipitation 8.60  
Sea Level Pressure  
Sea Level Pressure 30.40 in    
Wind  
Wind Speed 5 mph (NNW)    
Max Wind Speed 13 mph    
Max Gust Speed 16 mph    
Visibility 10 miles    
Events      
T = Trace of Precipitation, MM = Missing Value Source: NWS Daily Summary

Daily Weather History Graph

Daily Weather History Graph

Search for Another Location

Airport or City:

Trip Planner

Search our weather history database for the weather conditions in past years. The results will help you decide how hot, cold, wet, or windy it might be!

Date:

Astronomy

Apr. 22, 2013 Rise Set
Actual Time 6:12 AM PDT 8:07 PM PDT
Civil Twilight 5:40 AM PDT 8:39 PM PDT
Nautical Twilight 5:01 AM PDT 9:19 PM PDT
Astronomical Twilight 4:19 AM PDT 10:02 PM PDT
Moon 4:54 PM PDT (4/22) 4:20 AM PDT (4/22)
Length of Visible Light 14h 58m
Length of Day
13h 54m
Waxing Gibbous, 88% of the Moon is Illuminated
Apr 22
Waxing Gibbous
Apr 25
Full
May 2
Last Quarter
May 9
New
May 17
First Quarter

Hourly Weather History & Observations

Time (PDT) Temp. Windchill Dew Point Humidity Pressure Visibility Wind Dir Wind Speed Gust Speed Precip Events Conditions
12:53 AM 45.0 °F 41.8 °F 37.9 °F 76% 30.35 in 10.0 mi NW 5.8 mph - N/A   Clear
1:53 AM 44.1 °F 41.5 °F 37.9 °F 79% 30.35 in 10.0 mi NW 4.6 mph - N/A   Clear
2:53 AM 44.1 °F 41.5 °F 37.9 °F 79% 30.37 in 10.0 mi North 4.6 mph - N/A   Clear
3:53 AM 43.0 °F 38.2 °F 37.0 °F 80% 30.38 in 10.0 mi NW 8.1 mph - N/A   Clear
4:53 AM 41.0 °F 38.0 °F 36.0 °F 82% 30.39 in 10.0 mi North 4.6 mph - N/A   Clear
5:53 AM 39.9 °F 37.8 °F 36.0 °F 86% 30.40 in 10.0 mi North 3.5 mph - N/A   Clear
6:53 AM 41.0 °F 39.0 °F 36.0 °F 82% 30.42 in 10.0 mi North 3.5 mph - N/A   Clear
7:53 AM 46.0 °F 43.1 °F 37.9 °F 73% 30.44 in 10.0 mi North 5.8 mph - N/A   Clear
8:53 AM 48.0 °F - 39.0 °F 71% 30.45 in 10.0 mi North 9.2 mph - N/A   Clear
9:53 AM 52.0 °F - 39.0 °F 61% 30.45 in 10.0 mi NNW 6.9 mph - N/A   Clear
10:53 AM 55.0 °F - 37.0 °F 51% 30.45 in 10.0 mi North 5.8 mph - N/A   Clear
11:53 AM 57.9 °F - 33.1 °F 39% 30.45 in 10.0 mi Calm Calm - N/A   Clear
12:53 PM 60.1 °F - 33.1 °F 36% 30.43 in 10.0 mi North 5.8 mph - N/A   Clear
1:53 PM 62.1 °F - 30.9 °F 31% 30.41 in 10.0 mi North 8.1 mph - N/A   Clear
2:53 PM 63.0 °F - 30.0 °F 29% 30.40 in 10.0 mi Variable 3.5 mph - N/A   Clear
3:53 PM 64.9 °F - 32.0 °F 29% 30.38 in 10.0 mi Variable 3.5 mph - N/A   Clear
4:53 PM 66.0 °F - 33.1 °F 29% 30.37 in 10.0 mi Variable 4.6 mph - N/A   Clear
5:53 PM 64.9 °F - 34.0 °F 32% 30.35 in 10.0 mi North 9.2 mph - N/A   Clear
6:53 PM 63.0 °F - 33.1 °F 33% 30.35 in 10.0 mi NNW 9.2 mph - N/A   Clear
7:53 PM 59.0 °F - 34.0 °F 39% 30.36 in 10.0 mi North 6.9 mph - N/A   Clear
8:53 PM 55.9 °F - 33.1 °F 42% 30.38 in 10.0 mi NW 5.8 mph - N/A   Clear
9:53 PM 53.1 °F - 30.0 °F 41% 30.39 in 10.0 mi WNW 4.6 mph - N/A   Clear
10:53 PM 52.0 °F - 28.9 °F 41% 30.39 in 10.0 mi NW 5.8 mph - N/A   Clear
11:53 PM 50.0 °F - 28.0 °F 43% 30.39 in 10.0 mi Calm Calm - N/A   Clear